User: anonymous   Login
Location: Unspecified
(0.0000°N, 0.0000°E)
Time: 10:27:46
(UTC+00:00)
Language:

Vela 3A - Orbit

View from above orbital plane
View from above orbital plane
View from above satellite
View from above satellite

Ground track
Ground track

The orbit data is extracted from the following two-line orbital elements,

1 01458U 65058A   16178.48061910 -.00000915  00000-0  00000+0 0  9999
2 01458  23.8827   9.4148 4947268 209.8081   1.9881  0.21233642 78414
Epoch (UTC): 26 June 2016 11:32:05
Eccentricity: 0.4947268
inclination: 23.8827°
perigee height: 53588 km
apogee height: 171017 km
right ascension of ascending node: 9.4148°
argument of perigee: 209.8081°
revolutions per day: 0.21233642
mean anomaly at epoch: 1.9881°
orbit number at epoch: 7841

The dashed part of the orbit path shows where the satellite is in the earth's shadow,  

DLR